| time (UTC) | temp F | wind direction | speed MPH | gust MPH | rain 1hr in | rain 24hr in | rain mn in | humidity % | barometer mb |
| 20260906200834 | 94 | 39 | 2.0 | 2.0 | 0.00 | 0.00 | 0.00 | 55 | 1011.5 |
| 20260906200330 | 94 | 23 | 3.0 | 6.0 | 0.00 | 0.00 | 0.00 | 56 | 1011.7 |
| 20260906195824 | 96 | 24 | 2.0 | 2.0 | 0.00 | 0.00 | 0.00 | 55 | 1011.7 |
| 20260906195321 | 96 | 73 | 3.0 | 5.0 | 0.00 | 0.00 | 0.00 | 51 | 1011.8 |
| 20260906194817 | 93 | 49 | 1.0 | 2.0 | 0.00 | 0.00 | 0.00 | 55 | 1011.9 |
| 20260906194312 | 94 | 71 | 1.0 | 2.0 | 0.00 | 0.00 | 0.00 | 56 | 1011.9 |
| 20260906193807 | 96 | 31 | 2.0 | 5.0 | 0.00 | 0.00 | 0.00 | 53 | 1011.9 |
| 20260906193301 | 94 | 41 | 1.0 | 1.0 | 0.00 | 0.00 | 0.00 | 55 | 1011.9 |
| 20260906192757 | 96 | 111 | 2.0 | 2.0 | 0.00 | 0.00 | 0.00 | 54 | 1012.1 |
| 20260906192252 | 96 | 38 | 1.0 | 1.0 | 0.00 | 0.00 | 0.00 | 46 | 1011.9 |
| 20260906191750 | 96 | 129 | 2.0 | 2.0 | 0.00 | 0.00 | 0.00 | 47 | 1012.2 |
| 20260906191245 | 95 | 146 | 3.0 | 5.0 | 0.00 | 0.00 | 0.00 | 48 | 1012.0 |
| 20260906190740 | 95 | 26 | 2.0 | 2.0 | 0.00 | 0.00 | 0.00 | 47 | 1012.0 |
| 20260906190234 | 94 | 150 | 3.0 | 3.0 | 0.00 | 0.00 | 0.00 | 49 | 1012.2 |
| 20260906185734 | 94 | 97 | 2.0 | 2.0 | 0.00 | 0.00 | 0.00 | 50 | 1012.2 |
| 20260906185233 | 96 | 201 | 3.0 | 3.0 | 0.00 | 0.00 | 0.00 | 48 | 1012.3 |
| 20260906184727 | 96 | 130 | 3.0 | 3.0 | 0.00 | 0.00 | 0.00 | 49 | 1012.2 |
| 20260906184223 | 94 | 297 | 3.0 | 5.0 | 0.00 | 0.00 | 0.00 | 50 | 1012.3 |
| 20260906183719 | 97 | 123 | 3.0 | 5.0 | 0.00 | 0.00 | 0.00 | 47 | 1012.5 |
| 20260906183215 | 97 | 152 | 3.0 | 3.0 | 0.00 | 0.00 | 0.00 | 47 | 1012.5 |
| 20260906182714 | 96 | 165 | 2.0 | 3.0 | 0.00 | 0.00 | 0.00 | 47 | 1012.6 |
| 20260906182210 | 95 | 164 | 3.0 | 3.0 | 0.00 | 0.00 | 0.00 | 51 | 1012.8 |
| 20260906181705 | 94 | 88 | 3.0 | 3.0 | 0.00 | 0.00 | 0.00 | 51 | 1012.6 |
| 20260906181201 | 95 | 45 | 3.0 | 5.0 | 0.00 | 0.00 | 0.00 | 50 | 1012.6 |
| 20260906180655 | 97 | 97 | 2.0 | 3.0 | 0.00 | 0.00 | 0.00 | 46 | 1012.8 |
| 20260906180151 | 96 | 136 | 2.0 | 3.0 | 0.00 | 0.00 | 0.00 | 48 | 1012.9 |
| 20260906175649 | 95 | 82 | 2.0 | 2.0 | 0.00 | 0.00 | 0.00 | 51 | 1012.6 |
| 20260906175144 | 95 | 86 | 5.0 | 7.0 | 0.00 | 0.00 | 0.00 | 49 | 1012.9 |
| 20260906174642 | 94 | 123 | 3.0 | 5.0 | 0.00 | 0.00 | 0.00 | 52 | 1013.1 |
| 20260906174137 | 93 | 192 | 4.0 | 5.0 | 0.00 | 0.00 | 0.00 | 53 | 1013.0 |
| 20260906173633 | 91 | 68 | 0.0 | 0.0 | 0.00 | 0.00 | 0.00 | 59 | 1013.3 |
| 20260906173128 | 90 | 67 | 0.0 | 1.0 | 0.00 | 0.00 | 0.00 | 60 | 1013.4 |
| 20260906172627 | 92 | 26 | 1.0 | 1.0 | 0.00 | 0.00 | 0.00 | 59 | 1013.6 |
| 20260906172123 | 93 | 304 | 1.0 | 2.0 | 0.00 | 0.00 | 0.00 | 54 | 1013.8 |
| 20260906171622 | 93 | 98 | 4.0 | 5.0 | 0.00 | 0.00 | 0.00 | 55 | 1013.8 |
| 20260906171118 | 93 | 97 | 3.0 | 3.0 | 0.00 | 0.00 | 0.00 | 60 | 1013.7 |
| 20260906170615 | 93 | 56 | 1.0 | 1.0 | 0.00 | 0.00 | 0.00 | 58 | 1014.1 |
| 20260906170114 | 92 | 195 | 2.0 | 3.0 | 0.00 | 0.00 | 0.00 | 60 | 1013.7 |
| 20260906165610 | 90 | 2 | 1.0 | 1.0 | 0.00 | 0.00 | 0.00 | 62 | 1013.9 |
| 20260906165105 | 89 | 85 | 2.0 | 2.0 | 0.00 | 0.00 | 0.00 | 66 | 1013.7 |
| 20260906164604 | 89 | 168 | 4.0 | 5.0 | 0.00 | 0.00 | 0.00 | 65 | 1014.0 |
| 20260906164100 | 92 | 110 | 1.0 | 1.0 | 0.00 | 0.00 | 0.00 | 62 | 1014.0 |
| 20260906163555 | 92 | 141 | 5.0 | 5.0 | 0.00 | 0.00 | 0.00 | 62 | 1013.8 |
| 20260906163051 | 91 | 78 | 2.0 | 3.0 | 0.00 | 0.00 | 0.00 | 65 | 1013.9 |
| 20260906162548 | 88 | 64 | 1.0 | 2.0 | 0.00 | 0.00 | 0.00 | 67 | 1013.9 |
| 20260906162043 | 88 | 198 | 3.0 | 3.0 | 0.00 | 0.00 | 0.00 | 68 | 1013.9 |
| 20260906161538 | 88 | 75 | 1.0 | 2.0 | 0.00 | 0.00 | 0.00 | 69 | 1013.9 |
| 20260906161037 | 89 | 255 | 2.0 | 3.0 | 0.00 | 0.00 | 0.00 | 66 | 1013.8 |
| 20260906160536 | 91 | 188 | 2.0 | 3.0 | 0.00 | 0.00 | 0.00 | 66 | 1013.8 |
| 20260906160034 | 89 | 149 | 2.0 | 3.0 | 0.00 | 0.00 | 0.00 | 67 | 1014.1 |
| 20260906155532 | 88 | 107 | 2.0 | 3.0 | 0.00 | 0.00 | 0.00 | 68 | 1013.9 |
| 20260906155029 | 89 | 277 | 3.0 | 3.0 | 0.00 | 0.00 | 0.00 | 65 | 1013.8 |
| 20260906154524 | 90 | 83 | 1.0 | 1.0 | 0.00 | 0.00 | 0.00 | 64 | 1013.9 |
| 20260906154022 | 89 | 64 | 1.0 | 2.0 | 0.00 | 0.00 | 0.00 | 68 | 1013.7 |
| 20260906153522 | 87 | 91 | 1.0 | 1.0 | 0.00 | 0.00 | 0.00 | 70 | 1013.9 |
| 20260906153017 | 86 | 73 | 1.0 | 1.0 | 0.00 | 0.00 | 0.00 | 73 | 1013.6 |
| 20260906152511 | 86 | 33 | 1.0 | 1.0 | 0.00 | 0.00 | 0.00 | 72 | 1013.7 |
| 20260906152010 | 87 | 184 | 2.0 | 3.0 | 0.00 | 0.00 | 0.00 | 71 | 1013.8 |
| 20260906151506 | 86 | 163 | 2.0 | 3.0 | 0.00 | 0.00 | 0.00 | 72 | 1013.8 |
| 20260906151001 | 86 | 132 | 1.0 | 2.0 | 0.00 | 0.00 | 0.00 | 72 | 1013.6 |
| 20260906150456 | 86 | 227 | 2.0 | 3.0 | 0.00 | 0.00 | 0.00 | 71 | 1013.6 |
| 20260906145956 | 85 | 352 | 4.0 | 5.0 | 0.00 | 0.00 | 0.00 | 74 | 1013.5 |
| 20260906145455 | 85 | 343 | 2.0 | 2.0 | 0.00 | 0.00 | 0.00 | 75 | 1013.5 |
| 20260906144950 | 84 | 189 | 2.0 | 2.0 | 0.00 | 0.00 | 0.00 | 77 | 1013.3 |
| 20260906144444 | 84 | 141 | 3.0 | 3.0 | 0.00 | 0.00 | 0.00 | 77 | 1013.4 |
| 20260906143940 | 84 | 119 | 1.0 | 1.0 | 0.00 | 0.00 | 0.00 | 78 | 1013.6 |
| 20260906143435 | 83 | 40 | 1.0 | 1.0 | 0.00 | 0.00 | 0.00 | 79 | 1013.3 |
| 20260906142931 | 83 | 192 | 2.0 | 2.0 | 0.00 | 0.00 | 0.00 | 81 | 1013.3 |
| 20260906142430 | 82 | 25 | 0.0 | 1.0 | 0.00 | 0.00 | 0.00 | 83 | 1013.3 |
| 20260906141926 | 82 | 28 | 2.0 | 2.0 | 0.00 | 0.00 | 0.00 | 86 | 1013.2 |
| 20260906141420 | 81 | 182 | 2.0 | 2.0 | 0.00 | 0.00 | 0.00 | 87 | 1013.6 |
| 20260906140914 | 81 | 108 | 2.0 | 2.0 | 0.00 | 0.00 | 0.00 | 89 | 1013.4 |
| 20260906140408 | 80 | 24 | 2.0 | 2.0 | 0.00 | 0.00 | 0.00 | 89 | 1013.1 |
| 20260906135906 | 80 | 98 | 2.0 | 2.0 | 0.00 | 0.00 | 0.00 | 90 | 1013.4 |
| 20260906135400 | 79 | 141 | 2.0 | 2.0 | 0.00 | 0.00 | 0.00 | 91 | 1013.2 |
| 20260906134856 | 79 | 107 | 2.0 | 2.0 | 0.00 | 0.00 | 0.00 | 91 | 1013.3 |
| 20260906134351 | 79 | 110 | 2.0 | 2.0 | 0.00 | 0.00 | 0.00 | 92 | 1013.4 |
| 20260906133847 | 78 | 131 | 3.0 | 3.0 | 0.00 | 0.00 | 0.00 | 93 | 1013.4 |
| 20260906133342 | 78 | 85 | 1.0 | 1.0 | 0.00 | 0.00 | 0.00 | 93 | 1013.4 |
| 20260906132838 | 77 | 109 | 2.0 | 2.0 | 0.00 | 0.00 | 0.00 | 94 | 1013.2 |
| 20260906132332 | 77 | 118 | 2.0 | 2.0 | 0.00 | 0.00 | 0.00 | 94 | 1013.1 |
| 20260906131828 | 77 | 84 | 1.0 | 1.0 | 0.00 | 0.00 | 0.00 | 94 | 1012.9 |
| 20260906131323 | 77 | 123 | 2.0 | 2.0 | 0.00 | 0.00 | 0.00 | 94 | 1013.0 |
| 20260906130819 | 76 | 93 | 2.0 | 2.0 | 0.00 | 0.00 | 0.00 | 95 | 1012.8 |
| 20260906130318 | 76 | 80 | 0.0 | 1.0 | 0.00 | 0.00 | 0.00 | 95 | 1012.9 |
| 20260906125817 | 76 | 73 | 1.0 | 1.0 | 0.00 | 0.00 | 0.00 | 95 | 1012.8 |
| 20260906125315 | 75 | 60 | 0.0 | 0.0 | 0.00 | 0.00 | 0.00 | 95 | 1012.8 |
| 20260906124810 | 75 | 56 | 0.0 | 0.0 | 0.00 | 0.00 | 0.00 | 95 | 1012.8 |
| 20260906124306 | 75 | 56 | 0.0 | 0.0 | 0.00 | 0.00 | 0.00 | 94 | 1012.9 |
| 20260906123805 | 75 | 70 | 0.0 | 0.0 | 0.00 | 0.00 | 0.00 | 94 | 1012.5 |
| 20260906123300 | 75 | 63 | 0.0 | 0.0 | 0.00 | 0.00 | 0.00 | 94 | 1012.3 |
| 20260906122800 | 75 | 65 | 0.0 | 1.0 | 0.00 | 0.00 | 0.00 | 94 | 1012.2 |
| 20260906122255 | 75 | 111 | 1.0 | 2.0 | 0.00 | 0.00 | 0.00 | 94 | 1012.2 |
| 20260906121752 | 75 | 65 | 1.0 | 1.0 | 0.00 | 0.00 | 0.00 | 94 | 1012.2 |
| 20260906121248 | 76 | 74 | 1.0 | 1.0 | 0.00 | 0.00 | 0.00 | 94 | 1012.2 |
| 20260906120743 | 75 | 66 | 1.0 | 1.0 | 0.00 | 0.00 | 0.00 | 94 | 1012.2 |
| 20260906120240 | 76 | 70 | 1.0 | 1.0 | 0.00 | 0.00 | 0.00 | 93 | 1012.0 |
| 20260906115735 | 76 | 99 | 1.0 | 2.0 | 0.00 | 0.00 | 0.00 | 93 | 1012.1 |
| 20260906115230 | 76 | 144 | 1.0 | 1.0 | 0.00 | 0.00 | 0.00 | 93 | 1011.9 |
| 20260906114729 | 76 | 145 | 1.0 | 1.0 | 0.00 | 0.00 | 0.00 | 92 | 1011.9 |
| 20260906114224 | 76 | 215 | 2.0 | 3.0 | 0.00 | 0.00 | 0.00 | 92 | 1011.9 |
| 20260906113720 | 76 | 131 | 1.0 | 1.0 | 0.00 | 0.00 | 0.00 | 92 | 1011.7 |
| 20260906113219 | 75 | 120 | 1.0 | 1.0 | 0.00 | 0.00 | 0.00 | 92 | 1011.6 |
| 20260906112719 | 76 | 62 | 0.0 | 0.0 | 0.00 | 0.00 | 0.00 | 91 | 1011.5 |
| 20260906112216 | 76 | 50 | 0.0 | 0.0 | 0.00 | 0.00 | 0.00 | 91 | 1011.3 |
| 20260906111715 | 77 | 49 | 0.0 | 0.0 | 0.00 | 0.00 | 0.00 | 91 | 1011.2 |
| 20260906111210 | 77 | 48 | 0.0 | 0.0 | 0.00 | 0.00 | 0.00 | 91 | 1011.3 |
| 20260906110704 | 77 | 52 | 0.0 | 0.0 | 0.00 | 0.00 | 0.00 | 91 | 1011.2 |
| 20260906110200 | 76 | 55 | 0.0 | 0.0 | 0.00 | 0.00 | 0.00 | 91 | 1011.1 |
| 20260906105653 | 76 | 117 | 1.0 | 1.0 | 0.00 | 0.00 | 0.00 | 91 | 1011.2 |
| 20260906105150 | 76 | 68 | 0.0 | 0.0 | 0.00 | 0.00 | 0.00 | 91 | 1011.0 |
| 20260906104649 | 76 | 59 | 0.0 | 1.0 | 0.00 | 0.00 | 0.00 | 91 | 1011.0 |
| 20260906104143 | 76 | 52 | 0.0 | 1.0 | 0.00 | 0.00 | 0.00 | 91 | 1011.0 |
| 20260906103641 | 76 | 49 | 0.0 | 0.0 | 0.00 | 0.00 | 0.00 | 91 | 1011.0 |
| 20260906103137 | 76 | 55 | 0.0 | 0.0 | 0.00 | 0.00 | 0.00 | 91 | 1011.0 |
| 20260906102631 | 76 | 55 | 0.0 | 0.0 | 0.00 | 0.00 | 0.00 | 91 | 1011.0 |
| 20260906102125 | 76 | 56 | 0.0 | 0.0 | 0.00 | 0.00 | 0.00 | 91 | 1010.8 |
| 20260906101620 | 76 | 48 | 0.0 | 0.0 | 0.00 | 0.00 | 0.00 | 91 | 1010.8 |
| 20260906101115 | 76 | 56 | 0.0 | 0.0 | 0.00 | 0.00 | 0.00 | 91 | 1010.9 |
| 20260906100610 | 76 | 52 | 0.0 | 0.0 | 0.00 | 0.00 | 0.00 | 90 | 1010.8 |
| 20260906100111 | 76 | 66 | 0.0 | 1.0 | 0.00 | 0.00 | 0.00 | 90 | 1010.9 |
| 20260906095610 | 76 | 65 | 0.0 | 0.0 | 0.00 | 0.00 | 0.00 | 90 | 1010.8 |
| 20260906095106 | 76 | 51 | 0.0 | 0.0 | 0.00 | 0.00 | 0.00 | 90 | 1010.8 |
| 20260906094604 | 76 | 53 | 0.0 | 0.0 | 0.00 | 0.00 | 0.00 | 90 | 1010.8 |
| 20260906094101 | 76 | 52 | 0.0 | 0.0 | 0.00 | 0.00 | 0.00 | 90 | 1011.0 |
| 20260906093556 | 76 | 51 | 0.0 | 0.0 | 0.00 | 0.00 | 0.00 | 90 | 1011.0 |
| 20260906093051 | 76 | 62 | 0.0 | 0.0 | 0.00 | 0.00 | 0.00 | 90 | 1010.9 |
| 20260906092546 | 76 | 57 | 0.0 | 0.0 | 0.00 | 0.00 | 0.00 | 90 | 1011.3 |
| 20260906092041 | 76 | 61 | 0.0 | 0.0 | 0.00 | 0.00 | 0.00 | 90 | 1011.2 |
| 20260906091537 | 76 | 52 | 0.0 | 0.0 | 0.00 | 0.00 | 0.00 | 90 | 1011.0 |
| 20260906091033 | 76 | 52 | 0.0 | 0.0 | 0.00 | 0.00 | 0.00 | 90 | 1011.2 |
| 20260906090528 | 77 | 55 | 0.0 | 0.0 | 0.00 | 0.00 | 0.00 | 90 | 1011.2 |
| 20260906090023 | 77 | 73 | 0.0 | 0.0 | 0.00 | 0.00 | 0.00 | 90 | 1010.9 |
| 20260906085522 | 77 | 58 | 0.0 | 0.0 | 0.00 | 0.00 | 0.00 | 90 | 1011.2 |
| 20260906085021 | 77 | 68 | 1.0 | 1.0 | 0.00 | 0.00 | 0.00 | 90 | 1011.2 |
| 20260906084516 | 77 | 125 | 1.0 | 1.0 | 0.00 | 0.00 | 0.00 | 89 | 1011.2 |
| 20260906084015 | 77 | 124 | 1.0 | 1.0 | 0.00 | 0.00 | 0.00 | 89 | 1011.2 |
| 20260906083511 | 77 | 76 | 0.0 | 1.0 | 0.00 | 0.00 | 0.00 | 89 | 1011.3 |
| 20260906083010 | 77 | 57 | 1.0 | 1.0 | 0.00 | 0.00 | 0.00 | 89 | 1011.3 |
| 20260906082505 | 77 | 222 | 2.0 | 3.0 | 0.00 | 0.00 | 0.00 | 89 | 1011.4 |
| 20260906082001 | 77 | 82 | 0.0 | 0.0 | 0.00 | 0.00 | 0.00 | 88 | 1011.4 |
| 20260906081456 | 77 | 357 | 1.0 | 1.0 | 0.00 | 0.00 | 0.00 | 88 | 1011.4 |
| 20260906080952 | 78 | 25 | 1.0 | 1.0 | 0.00 | 0.00 | 0.00 | 88 | 1011.5 |
| 20260906080448 | 78 | 60 | 0.0 | 0.0 | 0.00 | 0.00 | 0.00 | 88 | 1011.4 |
| 20260906075943 | 78 | 40 | 1.0 | 1.0 | 0.00 | 0.00 | 0.00 | 88 | 1011.3 |
| 20260906075438 | 78 | 60 | 0.0 | 1.0 | 0.00 | 0.00 | 0.00 | 87 | 1011.5 |
| 20260906074933 | 78 | 102 | 1.0 | 1.0 | 0.00 | 0.00 | 0.00 | 87 | 1011.6 |
| 20260906074427 | 78 | 158 | 1.0 | 2.0 | 0.00 | 0.00 | 0.00 | 87 | 1011.7 |
| 20260906073926 | 78 | 181 | 2.0 | 3.0 | 0.00 | 0.00 | 0.00 | 87 | 1011.6 |
| 20260906073421 | 78 | 137 | 2.0 | 2.0 | 0.00 | 0.00 | 0.00 | 86 | 1011.9 |
| 20260906072917 | 79 | 176 | 2.0 | 3.0 | 0.00 | 0.00 | 0.00 | 86 | 1011.8 |
| 20260906072412 | 79 | 172 | 1.0 | 2.0 | 0.00 | 0.00 | 0.00 | 85 | 1011.9 |
| 20260906071908 | 79 | 196 | 3.0 | 3.0 | 0.00 | 0.00 | 0.00 | 85 | 1011.8 |
| 20260906071404 | 79 | 150 | 3.0 | 5.0 | 0.00 | 0.00 | 0.00 | 85 | 1012.0 |
| 20260906070859 | 79 | 94 | 3.0 | 3.0 | 0.00 | 0.00 | 0.00 | 84 | 1012.1 |
| 20260906070355 | 79 | 129 | 3.0 | 3.0 | 0.00 | 0.00 | 0.00 | 84 | 1012.0 |
| 20260906065851 | 79 | 82 | 1.0 | 1.0 | 0.00 | 0.00 | 0.00 | 84 | 1011.9 |
| 20260906065344 | 79 | 144 | 1.0 | 2.0 | 0.00 | 0.00 | 0.00 | 83 | 1012.1 |
| 20260906064840 | 79 | 74 | 1.0 | 1.0 | 0.00 | 0.00 | 0.00 | 83 | 1012.1 |
| 20260906064337 | 79 | 82 | 1.0 | 1.0 | 0.00 | 0.00 | 0.00 | 83 | 1012.3 |
| 20260906063836 | 79 | 105 | 3.0 | 5.0 | 0.00 | 0.00 | 0.00 | 82 | 1012.3 |
| 20260906063332 | 79 | 99 | 2.0 | 2.0 | 0.00 | 0.00 | 0.00 | 82 | 1012.3 |
| 20260906062827 | 79 | 65 | 1.0 | 1.0 | 0.00 | 0.00 | 0.00 | 81 | 1012.5 |
| 20260906062326 | 79 | 97 | 1.0 | 1.0 | 0.00 | 0.00 | 0.00 | 81 | 1012.2 |
| 20260906061822 | 80 | 73 | 1.0 | 2.0 | 0.00 | 0.00 | 0.00 | 80 | 1012.5 |
| 20260906061318 | 80 | 66 | 2.0 | 3.0 | 0.00 | 0.00 | 0.00 | 80 | 1012.5 |
| 20260906060813 | 80 | 114 | 2.0 | 2.0 | 0.00 | 0.00 | 0.00 | 80 | 1012.4 |
| 20260906060311 | 80 | 72 | 1.0 | 1.0 | 0.00 | 0.00 | 0.00 | 79 | 1012.6 |
| 20260906055807 | 80 | 136 | 2.0 | 2.0 | 0.00 | 0.00 | 0.00 | 79 | 1012.4 |
| 20260906055306 | 80 | 99 | 2.0 | 2.0 | 0.00 | 0.00 | 0.00 | 79 | 1012.5 |
| 20260906054756 | 81 | 171 | 1.0 | 1.0 | 0.00 | 0.00 | 0.00 | 78 | 1012.4 |
| 20260906054252 | 81 | 164 | 2.0 | 2.0 | 0.00 | 0.00 | 0.00 | 78 | 1012.2 |
| 20260906053748 | 81 | 108 | 2.0 | 3.0 | 0.00 | 0.00 | 0.00 | 77 | 1012.5 |
| 20260906053244 | 81 | 158 | 3.0 | 3.0 | 0.00 | 0.00 | 0.00 | 77 | 1012.3 |
| 20260906052739 | 81 | 88 | 3.0 | 5.0 | 0.00 | 0.00 | 0.00 | 77 | 1012.4 |
| 20260906052235 | 81 | 145 | 2.0 | 2.0 | 0.00 | 0.00 | 0.00 | 76 | 1012.4 |
| 20260906051732 | 81 | 76 | 1.0 | 2.0 | 0.00 | 0.00 | 0.00 | 76 | 1012.4 |
| 20260906051231 | 81 | 153 | 3.0 | 3.0 | 0.00 | 0.00 | 0.00 | 76 | 1012.6 |
| 20260906050727 | 82 | 213 | 3.0 | 6.0 | 0.00 | 0.00 | 0.00 | 75 | 1012.4 |
| 20260906050222 | 82 | 155 | 3.0 | 3.0 | 0.00 | 0.00 | 0.00 | 75 | 1012.4 |
| 20260906045720 | 82 | 189 | 3.0 | 3.0 | 0.00 | 0.00 | 0.00 | 76 | 1012.4 |
| 20260906045216 | 82 | 97 | 2.0 | 2.0 | 0.00 | 0.00 | 0.00 | 76 | 1012.8 |
| 20260906044711 | 82 | 144 | 1.0 | 2.0 | 0.00 | 0.00 | 0.00 | 76 | 1012.6 |
| 20260906044206 | 82 | 110 | 3.0 | 5.0 | 0.00 | 0.00 | 0.00 | 76 | 1012.6 |
| 20260906043702 | 82 | 179 | 3.0 | 5.0 | 0.00 | 0.00 | 0.00 | 75 | 1012.5 |
| 20260906043158 | 82 | 136 | 5.0 | 7.0 | 0.00 | 0.00 | 0.00 | 75 | 1012.9 |
| 20260906042657 | 83 | 110 | 3.0 | 3.0 | 0.00 | 0.00 | 0.00 | 75 | 1012.8 |
| 20260906042151 | 83 | 131 | 3.0 | 5.0 | 0.00 | 0.00 | 0.00 | 74 | 1012.5 |
| 20260906041647 | 83 | 137 | 3.0 | 5.0 | 0.00 | 0.00 | 0.00 | 74 | 1012.6 |
| 20260906041142 | 83 | 161 | 4.0 | 5.0 | 0.00 | 0.00 | 0.00 | 74 | 1012.4 |
| 20260906040637 | 83 | 144 | 3.0 | 6.0 | 0.00 | 0.00 | 0.00 | 74 | 1012.3 |
| 20260906040133 | 84 | 146 | 4.0 | 5.0 | 0.00 | 0.00 | 0.00 | 73 | 1012.5 |
| 20260906035628 | 84 | 153 | 4.0 | 5.0 | 0.00 | 0.00 | 0.00 | 73 | 1012.2 |
| 20260906035123 | 84 | 182 | 2.0 | 2.0 | 0.00 | 0.00 | 0.00 | 73 | 1012.2 |
| 20260906034618 | 84 | 144 | 2.0 | 2.0 | 0.00 | 0.00 | 0.00 | 72 | 1012.3 |
| 20260906034113 | 84 | 101 | 3.0 | 3.0 | 0.00 | 0.00 | 0.00 | 72 | 1012.5 |
| 20260906033609 | 84 | 105 | 3.0 | 5.0 | 0.00 | 0.00 | 0.00 | 72 | 1012.3 |
| 20260906033103 | 84 | 173 | 3.0 | 3.0 | 0.00 | 0.00 | 0.00 | 71 | 1012.2 |
| 20260906032600 | 84 | 92 | 2.0 | 2.0 | 0.00 | 0.00 | 0.00 | 71 | 1012.1 |
| 20260906032100 | 85 | 103 | 5.0 | 6.0 | 0.00 | 0.00 | 0.00 | 70 | 1012.0 |
| 20260906031555 | 85 | 152 | 4.0 | 6.0 | 0.00 | 0.00 | 0.00 | 70 | 1012.0 |
| 20260906031051 | 85 | 146 | 3.0 | 3.0 | 0.00 | 0.00 | 0.00 | 69 | 1011.8 |
| 20260906030550 | 85 | 75 | 4.0 | 5.0 | 0.00 | 0.00 | 0.00 | 68 | 1011.6 |
| 20260906030049 | 86 | 150 | 3.0 | 3.0 | 0.00 | 0.00 | 0.00 | 68 | 1011.6 |
| 20260906025544 | 86 | 56 | 2.0 | 2.0 | 0.00 | 0.00 | 0.00 | 67 | 1011.5 |
| 20260906025042 | 86 | 183 | 5.0 | 7.0 | 0.00 | 0.00 | 0.00 | 66 | 1011.4 |
| 20260906024537 | 86 | 154 | 3.0 | 3.0 | 0.00 | 0.00 | 0.00 | 64 | 1011.3 |
| 20260906024032 | 87 | 148 | 3.0 | 5.0 | 0.00 | 0.00 | 0.00 | 63 | 1010.9 |
| 20260906023528 | 87 | 139 | 3.0 | 5.0 | 0.00 | 0.00 | 0.00 | 62 | 1010.9 |
| 20260906023022 | 87 | 111 | 1.0 | 2.0 | 0.00 | 0.00 | 0.00 | 62 | 1010.8 |
| 20260906022518 | 87 | 108 | 2.0 | 2.0 | 0.00 | 0.00 | 0.00 | 61 | 1010.4 |
| 20260906022013 | 87 | 88 | 2.0 | 2.0 | 0.00 | 0.00 | 0.00 | 61 | 1010.7 |
| 20260906021509 | 87 | 162 | 4.0 | 5.0 | 0.00 | 0.00 | 0.00 | 60 | 1010.4 |
| 20260906021003 | 87 | 173 | 5.0 | 6.0 | 0.00 | 0.00 | 0.00 | 59 | 1010.5 |
| 20260906020502 | 88 | 137 | 3.0 | 3.0 | 0.00 | 0.00 | 0.00 | 59 | 1010.3 |
| 20260906020001 | 88 | 107 | 2.0 | 3.0 | 0.00 | 0.00 | 0.00 | 58 | 1010.4 |
| 20260906015501 | 88 | 53 | 2.0 | 3.0 | 0.00 | 0.00 | 0.00 | 57 | 1010.3 |
| 20260906015001 | 88 | 130 | 3.0 | 3.0 | 0.00 | 0.00 | 0.00 | 57 | 1010.1 |
| 20260906014455 | 88 | 119 | 1.0 | 2.0 | 0.00 | 0.00 | 0.00 | 56 | 1010.1 |
| 20260906013951 | 88 | 84 | 5.0 | 6.0 | 0.00 | 0.00 | 0.00 | 56 | 1010.0 |
| 20260906013447 | 87 | 135 | 4.0 | 6.0 | 0.00 | 0.00 | 0.00 | 56 | 1010.3 |
| 20260906012942 | 87 | 142 | 2.0 | 2.0 | 0.00 | 0.00 | 0.00 | 56 | 1010.0 |
| 20260906012437 | 88 | 80 | 0.0 | 1.0 | 0.00 | 0.00 | 0.00 | 57 | 1010.0 |
| 20260906011936 | 88 | 63 | 0.0 | 0.0 | 0.00 | 0.00 | 0.00 | 56 | 1009.8 |
| 20260906011432 | 88 | 61 | 0.0 | 0.0 | 0.00 | 0.00 | 0.00 | 55 | 1009.7 |
| 20260906010927 | 88 | 60 | 0.0 | 0.0 | 0.00 | 0.00 | 0.00 | 55 | 1009.7 |
| 20260906010422 | 89 | 85 | 1.0 | 1.0 | 0.00 | 0.00 | 0.00 | 54 | 1009.7 |
| 20260906005918 | 89 | 69 | 0.0 | 1.0 | 0.00 | 0.00 | 0.00 | 54 | 1009.7 |
| 20260906005418 | 90 | 101 | 1.0 | 1.0 | 0.00 | 0.00 | 0.00 | 52 | 1009.5 |
| 20260906004916 | 91 | 84 | 0.0 | 1.0 | 0.00 | 0.00 | 0.00 | 52 | 1009.4 |
| 20260906004411 | 91 | 61 | 0.0 | 0.0 | 0.00 | 0.00 | 0.00 | 51 | 1009.5 |
| 20260906003906 | 91 | 82 | 1.0 | 1.0 | 0.00 | 0.00 | 0.00 | 51 | 1009.5 |
| 20260906003402 | 92 | 74 | 1.0 | 1.0 | 0.00 | 0.00 | 0.00 | 50 | 1009.5 |
| 20260906002857 | 92 | 91 | 1.0 | 1.0 | 0.00 | 0.00 | 0.00 | 49 | 1009.4 |
| 20260906002356 | 92 | 102 | 1.0 | 2.0 | 0.00 | 0.00 | 0.00 | 49 | 1009.5 |
| 20260906001852 | 92 | 91 | 1.0 | 1.0 | 0.00 | 0.00 | 0.00 | 49 | 1009.6 |
| 20260906001348 | 93 | 55 | 1.0 | 2.0 | 0.00 | 0.00 | 0.00 | 48 | 1009.3 |
| 20260906000842 | 93 | 140 | 2.0 | 2.0 | 0.00 | 0.00 | 0.00 | 47 | 1009.8 |
| 20260906000337 | 94 | 153 | 5.0 | 6.0 | 0.00 | 0.00 | 0.00 | 47 | 1009.5 |
| 20260905235837 | 94 | 110 | 2.0 | 2.0 | 0.00 | 0.00 | 0.00 | 47 | 1009.3 |
| 20260905235331 | 94 | 100 | 2.0 | 2.0 | 0.00 | 0.00 | 0.00 | 46 | 1009.5 |
| 20260905234827 | 95 | 112 | 3.0 | 3.0 | 0.00 | 0.00 | 0.00 | 46 | 1009.4 |
| 20260905234322 | 95 | 31 | 1.0 | 1.0 | 0.00 | 0.00 | 0.00 | 44 | 1009.6 |
| 20260905233817 | 95 | 113 | 3.0 | 3.0 | 0.00 | 0.00 | 0.00 | 45 | 1009.5 |
| 20260905233312 | 96 | 146 | 3.0 | 3.0 | 0.00 | 0.00 | 0.00 | 43 | 1009.6 |
| 20260905232811 | 96 | 166 | 3.0 | 3.0 | 0.00 | 0.00 | 0.00 | 43 | 1009.4 |
| 20260905232307 | 96 | 36 | 0.0 | 1.0 | 0.00 | 0.00 | 0.00 | 43 | 1009.4 |
| 20260905231803 | 96 | 142 | 3.0 | 5.0 | 0.00 | 0.00 | 0.00 | 43 | 1009.7 |
| 20260905231258 | 96 | 128 | 3.0 | 3.0 | 0.00 | 0.00 | 0.00 | 43 | 1009.6 |
| 20260905230754 | 96 | 134 | 2.0 | 2.0 | 0.00 | 0.00 | 0.00 | 42 | 1009.5 |
| 20260905230252 | 97 | 142 | 3.0 | 3.0 | 0.00 | 0.00 | 0.00 | 42 | 1009.5 |
| 20260905225751 | 97 | 91 | 1.0 | 1.0 | 0.00 | 0.00 | 0.00 | 41 | 1009.4 |
| 20260905225247 | 96 | 199 | 2.0 | 2.0 | 0.00 | 0.00 | 0.00 | 41 | 1009.5 |
| 20260905224746 | 98 | 359 | 1.0 | 1.0 | 0.00 | 0.00 | 0.00 | 40 | 1009.6 |
| 20260905224242 | 97 | 139 | 2.0 | 2.0 | 0.00 | 0.00 | 0.00 | 40 | 1009.5 |
| 20260905223737 | 96 | 162 | 3.0 | 3.0 | 0.00 | 0.00 | 0.00 | 41 | 1009.8 |
| 20260905223234 | 98 | 165 | 5.0 | 6.0 | 0.00 | 0.00 | 0.00 | 40 | 1009.5 |
| 20260905222730 | 98 | 80 | 1.0 | 1.0 | 0.00 | 0.00 | 0.00 | 39 | 1009.6 |
| 20260905222228 | 96 | 49 | 0.0 | 1.0 | 0.00 | 0.00 | 0.00 | 40 | 1009.6 |
| 20260905221725 | 97 | 130 | 4.0 | 5.0 | 0.00 | 0.00 | 0.00 | 41 | 1009.8 |
| 20260905221221 | 98 | 148 | 3.0 | 3.0 | 0.00 | 0.00 | 0.00 | 41 | 1009.6 |
| 20260905220717 | 97 | 16 | 1.0 | 1.0 | 0.00 | 0.00 | 0.00 | 41 | 1009.6 |
| 20260905220213 | 97 | 148 | 2.0 | 3.0 | 0.00 | 0.00 | 0.00 | 40 | 1010.1 |
| 20260905215712 | 98 | 135 | 3.0 | 3.0 | 0.00 | 0.00 | 0.00 | 40 | 1009.6 |
| 20260905215208 | 97 | 116 | 2.0 | 3.0 | 0.00 | 0.00 | 0.00 | 42 | 1010.1 |
| 20260905214704 | 96 | 157 | 4.0 | 6.0 | 0.00 | 0.00 | 0.00 | 43 | 1010.0 |
| 20260905214159 | 94 | 128 | 3.0 | 3.0 | 0.00 | 0.00 | 0.00 | 44 | 1009.8 |
| 20260905213654 | 93 | 23 | 3.0 | 5.0 | 0.00 | 0.00 | 0.00 | 48 | 1009.8 |
| 20260905213150 | 95 | 169 | 4.0 | 6.0 | 0.00 | 0.00 | 0.00 | 48 | 1010.1 |
| 20260905212645 | 97 | 123 | 3.0 | 3.0 | 0.00 | 0.00 | 0.00 | 45 | 1010.0 |
| 20260905212144 | 97 | 95 | 1.0 | 2.0 | 0.00 | 0.00 | 0.00 | 45 | 1010.1 |
| 20260905211639 | 96 | 44 | 0.0 | 0.0 | 0.00 | 0.00 | 0.00 | 44 | 1010.1 |
| 20260905211134 | 94 | 29 | 1.0 | 1.0 | 0.00 | 0.00 | 0.00 | 48 | 1010.1 |
| 20260905210631 | 94 | 161 | 3.0 | 3.0 | 0.00 | 0.00 | 0.00 | 49 | 1010.2 |
| 20260905210126 | 97 | 165 | 3.0 | 3.0 | 0.00 | 0.00 | 0.00 | 44 | 1010.1 |
| 20260905205625 | 97 | 74 | 2.0 | 3.0 | 0.00 | 0.00 | 0.00 | 46 | 1009.8 |
| 20260905205124 | 97 | 167 | 4.0 | 5.0 | 0.00 | 0.00 | 0.00 | 47 | 1010.1 |
| 20260905204624 | 98 | 35 | 2.0 | 2.0 | 0.00 | 0.00 | 0.00 | 45 | 1010.2 |
| 20260905204120 | 97 | 138 | 1.0 | 2.0 | 0.00 | 0.00 | 0.00 | 45 | 1010.5 |
| 20260905203619 | 97 | 34 | 4.0 | 7.0 | 0.00 | 0.00 | 0.00 | 47 | 1010.7 |
| 20260905203115 | 97 | 196 | 3.0 | 5.0 | 0.00 | 0.00 | 0.00 | 47 | 1010.7 |
| 20260905202610 | 96 | 79 | 2.0 | 2.0 | 0.00 | 0.00 | 0.00 | 47 | 1010.7 |
| 20260905202105 | 97 | 147 | 4.0 | 5.0 | 0.00 | 0.00 | 0.00 | 48 | 1011.0 |
| 20260905201601 | 94 | 62 | 3.0 | 5.0 | 0.00 | 0.00 | 0.00 | 50 | 1010.9 |